Theta_e
310 309 312 313 313 316 319 322 323 323 323 324 324 325 325 326 327 326 327 327 328 328 329 327 327 328 329 327 327 330 329 330 333 337 341 343 341 342 343 340 334 331 332 333
311 310 311 314 315 315 317 317 318 320 323 323 324 324 325 326 326 326 327 327 328 329 328 327 327 328 329 328 331 332 332 335 336 339 343 344 343 343 342 339 333 332 333 333
311 313 313 313 315 316 315 316 316 317 318 320 321 321 322 323 325 327 328 328 328 328 328 328 327 327 328 330 331 332 333 335 338 344 346 344 344 342 338 335 332 332 333 333
307 310 315 314 313 316 316 316 317 317 318 318 320 322 322 322 324 325 326 327 328 327 326 326 327 327 331 332 333 333 336 342 345 346 344 342 341 337 333 333 333 333 333 333
307 308 310 313 314 315 316 317 317 318 318 318 320 320 322 322 325 324 323 326 327 327 327 328 327 328 332 333 333 333 335 340 343 344 343 339 337 334 334 333 333 332 332 332
310 310 308 308 310 315 315 316 317 317 317 318 319 320 321 321 322 324 324 326 326 326 327 328 332 334 336 335 334 335 336 340 343 342 339 335 332 332 333 333 331 332 332 331
314 314 310 310 309 310 312 313 315 317 318 319 318 321 322 321 323 324 323 325 327 328 330 332 336 337 337 336 336 336 338 341 340 335 334 333 333 333 332 332 331 332 330 329
312 312 314 315 309 309 310 313 315 318 319 318 319 320 321 322 323 324 324 326 331 335 335 337 338 338 337 337 336 336 337 337 335 335 333 333 334 331 330 330 331 331 330 327
313 313 313 312 312 311 310 310 315 316 318 318 319 319 320 320 321 324 324 327 337 338 338 338 338 337 338 338 336 335 336 335 334 334 333 333 329 332 332 332 330 327 327 327
311 311 310 310 311 312 314 312 315 315 317 319 321 320 321 323 324 323 325 328 337 338 338 337 337 337 338 337 336 335 334 332 333 332 333 333 334 334 331 330 329 327 329 330
309 310 310 310 311 312 315 312 312 314 315 319 321 321 322 324 324 324 325 335 336 337 337 336 337 337 337 337 337 336 334 333 333 332 333 332 331 331 332 330 330 328 329 329
311 313 315 313 312 312 313 314 312 314 317 318 319 321 327 329 326 325 333 335 336 336 336 337 337 337 337 337 336 335 334 333 332 333 333 331 330 330 331 330 329 327 328 327
312 312 314 315 314 313 314 317 315 315 318 317 320 320 321 324 327 327 334 335 336 336 336 337 337 337 337 336 336 335 334 332 332 332 331 330 330 330 330 330 328 327 327 327
311 311 312 315 316 316 318 319 319 316 317 318 320 321 320 323 326 333 335 335 335 335 336 336 337 336 336 336 335 335 332 331 332 331 331 329 330 330 330 329 328 328 327 327
311 314 313 313 315 315 315 316 316 318 318 319 320 322 322 327 335 335 335 335 335 335 335 336 336 336 336 336 335 332 331 330 330 332 331 330 330 330 329 329 328 328 328 327
312 316 314 316 314 315 315 314 315 317 319 320 318 321 324 327 335 334 334 334 334 335 335 335 336 336 336 335 333 329 330 329 330 331 330 330 330 329 329 328 329 329 327 327
312 312 314 315 316 315 316 314 313 317 319 321 318 320 328 331 333 332 333 334 334 334 335 335 335 336 336 334 330 328 329 329 330 331 330 330 330 329 328 328 327 327 328 327
309 310 314 319 317 316 314 319 320 319 321 328 322 323 330 330 330 329 332 333 333 335 334 335 335 335 334 332 329 327 328 328 329 331 330 330 331 329 328 328 328 328 328 328
309 311 314 320 319 318 318 319 321 323 330 329 328 328 328 329 328 328 329 330 332 334 334 334 334 335 333 331 328 328 328 328 329 331 330 331 331 330 329 329 329 329 328 328
311 311 314 318 319 323 317 316 316 319 332 327 327 328 330 329 331 329 328 329 330 333 334 334 334 334 332 330 327 328 328 327 329 332 331 332 330 330 330 330 330 330 330 329
315 315 316 317 319 318 314 314 316 328 328 323 325 326 327 327 326 328 328 329 331 332 335 334 334 333 332 329 327 326 327 327 330 332 331 331 331 330 331 331 331 329 329 329
314 316 317 317 317 320 311 315 321 320 320 322 323 324 327 328 328 329 330 330 330 332 335 334 334 333 332 329 327 326 327 327 329 331 332 332 331 330 331 329 330 331 329 328
315 313 313 315 314 311 310 315 314 316 318 319 322 323 324 327 328 329 332 332 331 332 333 336 334 333 332 330 327 325 327 326 328 331 332 332 331 331 331 329 330 330 328 326
312 312 313 315 313 313 313 313 313 314 318 318 320 322 323 324 326 327 329 332 334 333 332 334 335 334 332 330 328 324 328 326 328 330 332 332 331 332 331 330 329 328 328 327
312 312 312 312 313 313 313 312 313 314 317 318 318 320 322 322 324 325 325 327 331 334 335 333 337 335 334 332 329 325 328 325 327 329 333 332 332 333 331 330 332 330 331 330
311 312 313 312 312 312 312 313 313 313 315 317 318 319 321 322 323 323 324 325 327 333 335 335 335 335 334 333 330 326 328 325 326 329 333 333 331 334 332 328 333 333 331 329
Wind_Speed
16 8 21 37 21 15 12 22 22 16 19 18 23 22 27 24 18 20 30 30 34 38 26 26 28 23 26 24 24 18 25 27 28 30 33 34 33 30 26 24 16 15 16 16
9 23 27 15 16 18 21 22 23 14 13 14 21 18 24 22 18 31 33 33 34 34 32 27 27 23 21 23 17 21 24 26 28 29 31 28 25 27 24 20 18 18 18 17
16 15 16 21 20 21 25 25 19 21 12 22 15 16 20 20 16 23 26 27 30 23 22 25 26 29 27 21 20 22 22 23 26 27 24 19 20 17 15 19 20 18 18 19
15 18 21 21 26 20 23 17 23 21 13 18 7 18 25 16 17 16 23 32 36 33 33 35 32 31 20 21 20 18 18 23 23 22 21 22 20 19 16 16 17 16 18 17
24 14 10 20 22 18 25 14 19 14 17 16 17 10 26 11 12 6 10 24 27 25 30 28 29 30 24 22 19 15 19 22 21 20 19 20 21 18 13 17 16 13 14 16
16 22 18 20 17 20 17 17 19 14 12 11 20 15 30 16 14 9 10 24 26 29 36 29 15 21 26 20 16 16 18 22 23 20 22 20 18 16 15 14 12 9 10 14
13 18 16 20 17 19 15 11 7 9 10 17 14 13 22 6 14 18 14 21 26 24 11 18 26 29 25 21 18 17 20 25 24 21 19 20 18 14 17 15 11 13 10 8
9 10 9 10 18 11 13 14 10 13 13 16 12 10 10 17 16 32 30 26 9 19 27 33 32 29 24 21 19 22 28 26 26 20 18 18 16 15 11 9 9 9 7 3
3 7 12 16 18 15 21 17 18 17 11 7 7 14 22 27 22 15 8 9 29 32 33 31 27 25 23 20 23 29 25 26 26 21 19 13 11 10 10 8 5 3 2 5
4 9 10 17 15 14 10 12 6 11 14 14 6 10 11 10 19 18 10 11 27 35 33 31 28 26 22 23 25 24 23 26 21 17 15 11 10 8 5 4 4 6 7 5
8 4 14 10 4 9 10 14 11 6 10 12 5 9 15 16 14 14 10 27 33 36 36 33 31 26 24 26 24 22 22 21 19 17 14 13 12 7 5 3 4 8 8 5
4 3 7 12 16 16 14 20 16 9 13 10 4 9 2 4 9 12 19 30 34 39 36 34 32 28 29 27 23 22 20 20 16 17 14 11 9 7 9 5 5 4 12 9
3 3 5 6 7 9 8 12 13 6 6 20 10 13 6 10 6 12 18 30 33 38 36 35 33 32 29 26 24 23 19 18 18 16 13 11 8 4 7 9 9 10 10 8
3 3 7 7 14 10 11 20 16 12 10 7 18 19 10 18 7 17 24 32 35 35 37 36 34 32 29 26 24 23 20 17 17 16 12 9 6 4 10 10 12 10 9 7
3 6 8 15 20 11 13 19 19 17 14 12 11 11 12 9 15 19 29 31 32 33 35 36 35 32 30 26 25 19 22 16 15 15 12 6 3 8 12 10 14 11 10 8
5 4 7 14 18 10 14 20 20 19 21 15 20 15 10 10 21 17 27 31 30 33 34 35 35 33 31 29 26 20 22 16 16 16 10 5 6 10 9 12 16 10 11 8
7 5 4 5 5 7 5 17 21 15 17 18 19 9 6 9 8 9 24 28 31 32 34 36 36 34 32 29 24 20 23 20 15 14 9 8 11 8 7 10 14 13 12 9
10 10 1 5 3 4 2 9 11 12 13 20 19 13 15 18 21 25 23 21 26 34 36 35 35 33 31 27 23 22 23 19 16 13 10 12 13 11 11 11 12 12 12 10
14 6 3 3 3 7 10 15 10 10 13 16 20 19 15 10 30 16 21 18 15 20 37 37 36 33 31 27 25 24 22 19 17 14 15 14 13 12 11 10 11 12 13 12
10 8 4 3 3 3 4 17 28 19 7 13 9 12 3 16 6 2 15 12 13 15 29 36 36 34 31 28 26 24 22 20 21 18 17 19 14 9 12 10 9 7 8 10
1 3 3 3 3 5 15 26 37 4 1 20 12 13 13 2 2 9 11 13 11 15 29 35 36 35 31 28 26 25 22 22 19 17 19 17 14 10 9 9 9 10 8 9
3 4 1 1 3 3 17 19 6 6 21 23 11 15 13 6 10 15 14 16 10 11 15 34 36 34 31 28 26 26 23 23 20 19 23 22 17 11 10 9 12 10 9 12
2 5 3 6 2 3 21 17 19 17 15 17 19 17 16 17 20 18 17 16 11 8 10 31 32 33 30 28 27 27 24 24 21 20 21 21 16 11 9 11 14 12 11 14
5 8 4 2 5 5 9 21 27 27 20 25 23 16 20 22 24 23 23 21 17 10 1 5 32 33 31 28 26 25 25 26 22 23 23 21 17 15 12 14 13 13 14 15
4 4 6 3 3 5 7 20 26 25 21 24 22 24 20 19 21 22 24 24 19 14 12 2 32 32 30 28 26 26 26 27 23 26 24 23 19 18 13 16 15 10 8 6
4 3 3 2 11 8 18 16 20 25 24 19 21 24 24 23 20 21 24 22 22 20 11 6 11 31 31 28 26 28 26 30 26 29 27 26 22 20 16 19 19 16 12 8
Wind_Direction
248 218 219 222 220 239 260 236 245 247 237 257 254 260 269 265 258 264 275 268 273 258 241 244 265 270 244 251 260 255 244 234 231 224 219 205 213 214 210 223 213 230 242 248
233 229 231 242 236 235 246 264 261 271 249 251 257 254 255 253 256 253 253 255 264 266 247 257 256 262 266 253 248 239 229 225 224 223 218 213 209 212 225 232 219 233 241 244
233 247 228 238 232 237 229 240 254 258 287 284 298 292 278 281 274 264 256 260 264 250 241 249 257 276 254 245 249 228 228 226 218 213 200 192 194 204 218 217 215 228 237 239
260 255 241 250 230 233 242 233 239 254 252 257 248 271 265 269 266 261 267 267 265 263 264 266 261 260 236 227 219 224 215 196 196 197 191 188 188 195 200 201 214 218 235 246
242 274 257 250 249 227 250 236 251 241 241 258 252 262 267 211 238 270 267 255 259 264 255 245 249 245 219 217 216 210 193 188 191 184 188 182 185 186 174 208 228 218 227 252
262 247 252 264 275 240 262 242 251 259 258 260 238 233 266 243 248 243 257 265 269 269 263 237 204 190 186 189 190 183 172 170 176 179 177 178 176 188 186 188 204 216 250 269
254 267 248 251 266 269 258 225 245 237 233 239 218 235 239 259 222 239 245 255 270 266 222 171 170 167 173 175 176 168 165 166 169 169 177 182 184 186 185 197 217 245 266 278
268 276 272 257 234 263 252 230 217 214 219 251 262 243 238 242 245 243 254 258 210 137 146 152 160 161 165 167 164 162 159 158 168 166 167 178 195 211 213 207 223 251 265 277
14 257 282 302 302 231 252 251 230 252 279 245 244 236 264 259 257 252 220 180 129 131 140 146 151 157 160 159 158 159 157 160 170 171 176 182 176 176 186 214 224 219 170 168
297 290 274 286 313 301 258 251 241 221 234 255 243 243 253 274 249 228 192 136 133 136 143 143 150 156 157 152 152 157 157 160 167 165 166 164 166 170 189 196 179 148 154 152
345 263 272 290 246 272 290 242 243 278 210 235 254 268 254 245 213 193 157 142 137 139 144 147 151 153 151 153 154 153 153 157 162 164 167 163 172 207 180 171 147 169 148 155
32 292 290 285 276 268 272 283 239 225 228 238 215 265 249 109 146 135 144 143 141 146 145 150 151 150 154 158 157 157 157 163 164 158 175 177 195 218 194 178 160 203 166 159
35 308 302 285 232 226 248 268 247 236 241 223 237 242 304 295 158 137 141 138 138 142 145 149 151 154 158 160 160 162 164 167 164 173 171 183 212 211 182 165 151 126 141 143
151 257 250 277 301 312 291 316 325 262 237 229 227 259 282 270 209 131 138 140 143 145 146 151 156 158 162 163 162 167 170 167 171 177 178 191 207 224 170 166 164 163 153 165
130 257 252 274 283 279 266 284 299 304 261 230 233 263 224 268 140 138 140 139 143 142 148 155 160 160 166 164 167 166 173 169 173 183 185 187 204 161 155 169 162 168 171 172
203 256 268 286 275 194 251 268 281 278 281 267 247 245 289 258 130 132 142 142 144 149 154 160 164 165 168 168 168 165 174 168 180 177 177 185 142 138 153 166 179 166 169 168
201 237 323 289 182 163 298 256 264 261 274 276 243 196 228 96 73 139 140 145 149 153 158 165 166 168 169 170 168 170 174 171 180 169 168 157 155 153 147 163 166 174 168 162
239 261 160 256 139 198 233 339 228 237 278 320 251 169 110 95 72 52 89 127 158 156 163 167 169 170 170 170 169 170 172 173 178 171 161 154 155 140 147 154 161 164 172 176
212 220 248 270 222 334 351 350 354 336 25 356 73 64 22 2 83 24 45 81 81 149 170 171 172 170 168 169 170 170 169 173 181 171 161 164 163 158 161 169 168 173 186 192
197 188 172 15 299 279 184 324 331 314 64 343 15 76 28 6 100 247 39 52 77 98 173 169 170 169 167 169 171 173 172 177 185 179 165 167 170 169 171 193 195 198 197 202
52 344 237 197 194 246 335 333 310 121 39 311 341 54 51 9 210 75 66 58 82 68 161 170 170 170 170 171 174 174 177 181 179 180 178 177 174 168 190 189 178 168 167 173
353 308 300 210 43 337 358 319 57 334 330 298 30 31 59 50 51 52 50 54 62 67 131 171 170 170 172 174 176 176 182 179 183 182 183 178 170 168 171 171 167 165 153 158
355 346 325 354 75 336 330 334 360 322 287 342 58 29 27 37 40 41 40 45 41 40 79 174 174 171 175 179 184 179 184 179 183 184 185 178 175 181 186 168 158 154 143 145
341 6 356 17 1 311 328 346 345 337 343 10 32 36 31 37 30 33 32 37 29 42 110 161 179 175 177 183 187 185 185 179 184 187 184 179 180 178 174 159 146 158 154 153
327 308 339 319 301 327 352 345 338 333 357 11 10 22 29 35 31 26 31 24 12 17 42 263 184 184 182 186 187 185 188 184 190 188 185 182 186 187 173 171 166 174 185 163
337 327 354 292 331 335 317 334 357 334 341 0 5 9 25 34 37 27 28 20 12 11 351 18 203 194 189 189 187 186 190 188 194 191 185 184 187 192 179 177 187 204 196 185